Location: Newark
(48.3706°N, 17.1868°E)
Time: 21:59:12
(UTC+00:00)

N. Korean satellite - Visible Passes

Search period start: 20 October 2019 00:00
Search period end: 30 October 2019 00:00
Orbit: 455 x 508 km, 97.2° (Epoch: 20 October)

Date Brightness Start Highest point End Pass type
(mag) Time Alt. Az. Time Alt. Az. Time Alt. Az.
20 Oct 10.1 17:01:57 10° WSW 17:03:46 14° W 17:05:36 10° WNW visible
21 Oct 8.5 04:22:38 10° NNE 04:25:59 35° E 04:29:22 10° SSE visible
21 Oct 9.1 16:35:20 10° SSW 16:38:16 26° W 16:41:13 10° NW visible
22 Oct 9.8 03:57:53 10° NE 04:00:32 19° E 04:03:11 10° SE visible
23 Oct 10.6 03:34:45 10° E 03:34:59 10° E 03:35:13 10° E visible
24 Oct 7.4 04:39:54 10° NNE 04:43:31 57° E 04:47:08 10° S visible
24 Oct 9.9 16:53:32 10° SW 16:55:50 17° W 16:58:09 10° NW visible
25 Oct 8.9 04:14:52 10° NNE 04:18:06 29° E 04:21:22 10° SSE visible
25 Oct 8.7 16:27:13 10° SSW 16:30:20 31° W 16:33:31 10° NNW visible
26 Oct 10.0 03:50:18 10° NE 03:52:37 16° E 03:54:57 10° SE visible
27 Oct 10.4 17:12:35 10° WSW 17:13:26 11° W 17:14:17 10° WNW visible
28 Oct 7.9 04:32:03 10° NNE 04:35:37 46° E 04:39:12 10° S visible
28 Oct 9.6 16:45:13 10° SW 16:47:52 20° W 16:50:33 10° NW visible
29 Oct 9.3 04:07:07 10° NE 04:10:11 24° E 04:13:16 10° SSE visible
29 Oct 8.2 16:19:06 10° SSW 16:22:22 39° W 16:25:44 10° NNW visible
